This is the latest recevied weather packets stored in our database for station/object K7YVO. If no packets are shown the sender has not sent any weather packets the latest 10 day(s).
| Time | Temp. | Humidity | Pressure | Rain* | Wind** | Luminosity | Snow |
|---|---|---|---|---|---|---|---|
| 1777653992 | 13.89° C | 75% | 1019.1 hPa | 0 mm | - | 164 W/m² | - |
| 1777653385 | 14.44° C | 74% | 1019 hPa | 0 mm | - | 174 W/m² | - |
| 1777653082 | 14.44° C | 73% | 1019.1 hPa | 0 mm | - | 182 W/m² | - |
| 1777652778 | 13.89° C | 75% | 1019.4 hPa | 0 mm | - | 181 W/m² | - |
| 1777652474 | 13.89° C | 75% | 1019.1 hPa | 0 mm | - | 165 W/m² | - |
| 1777652172 | 13.89° C | 76% | 1019.1 hPa | 0 mm | - | 149 W/m² | - |
| 1777651863 | 13.89° C | 76% | 1019.3 hPa | 0 mm | - | 136 W/m² | - |
| 1777651560 | 13.89° C | 75% | 1019.5 hPa | 0 mm | - | 120 W/m² | - |
| 1777651257 | 13.33° C | 77% | 1019.1 hPa | 0 mm | - | 103 W/m² | - |
| 1777650953 | 13.33° C | 78% | 1019.4 hPa | 0 mm | - | 89 W/m² | - |
| 1777650651 | 13.33° C | 77% | 1019.3 hPa | 0 mm | - | 80 W/m² | - |
| 1777650045 | 13.33° C | 78% | 1019.5 hPa | 0 mm | - | 68 W/m² | - |
| 1777649742 | 12.78° C | 78% | 1019.5 hPa | 0 mm | - | 64 W/m² | - |
| 1777649439 | 12.78° C | 78% | 1019.4 hPa | 0 mm | - | 61 W/m² | - |
| 1777649135 | 12.78° C | 78% | 1019.3 hPa | 0 mm | - | 60 W/m² | - |
| 1777648833 | 12.78° C | 76% | 1019.5 hPa | 0 mm | - | 59 W/m² | - |
| 1777648530 | 12.78° C | 78% | 1019.3 hPa | 0 mm | - | 59 W/m² | - |
| 1777648227 | 12.78° C | 78% | 1019.4 hPa | 0 mm | - | 58 W/m² | - |
| 1777647921 | 12.78° C | 79% | 1019.4 hPa | 0 mm | - | 57 W/m² | - |
| 1777647619 | 12.22° C | 80% | 1019.3 hPa | 0 mm | - | 55 W/m² | - |
| 1777647315 | 12.22° C | 81% | 1019.1 hPa | 0 mm | - | 55 W/m² | - |
| 1777647013 | 12.22° C | 81% | 1019 hPa | 0 mm | - | 56 W/m² | - |
| 1777646404 | 12.22° C | 81% | 1019.1 hPa | 0 mm | - | 56 W/m² | - |
| 1777646100 | 12.22° C | 81% | 1018.9 hPa | 0 mm | - | 54 W/m² | - |
| 1777645791 | 12.22° C | 81% | 1018.8 hPa | 0 mm | - | 51 W/m² | - |
* Rain latest hour (hover to see other rain measurements)
** Current wind speed in m/s (hover to see current wind gust speed)